Previsão horária em Aligarh

Hoje, 5 Dezembro, Sábado

Tempo Temperatura Precipitação Vento Pressão Humidade
00:00 +19°C° 0 mm 1 m/s 742 mmHg 35%
01:00 +19°C° 0 mm 1 m/s 742 mmHg 36%
02:00 +18°C° 0 mm 1 m/s 742 mmHg 37%
03:00 +18°C° 0 mm 1 m/s 742 mmHg 38%
04:00 +18°C° 0 mm 1 m/s 742 mmHg 38%
05:00 +18°C° 0 mm 1 m/s 742 mmHg 39%
06:00 +17°C° 0 mm 2 m/s 743 mmHg 38%
07:00 +18°C° 0 mm 2 m/s 743 mmHg 37%
08:00 +19°C° 0 mm 2 m/s 744 mmHg 37%
09:00 +21°C° 0 mm 2 m/s 744 mmHg 33%
10:00 +25°C° 0 mm 2 m/s 744 mmHg 29%
11:00 +27°C° 0 mm 2 m/s 744 mmHg 25%
12:00 +28°C° 0 mm 2 m/s 743 mmHg 23%
13:00 +29°C° 0 mm 1 m/s 742 mmHg 22%
14:00 +30°C° 0 mm 1 m/s 742 mmHg 20%
15:00 +28°C° 0 mm 1 m/s 742 mmHg 23%
16:00 +26°C° 0 mm 1 m/s 741 mmHg 25%
17:00 +24°C° 0 mm 1 m/s 741 mmHg 28%
18:00 +24°C° 0 mm 1 m/s 742 mmHg 29%
19:00 +23°C° 0 mm 1 m/s 742 mmHg 30%
20:00 +22°C° 0 mm 1 m/s 743 mmHg 32%
21:00 +22°C° 0 mm 1 m/s 743 mmHg 33%
22:00 +21°C° 0 mm 1 m/s 743 mmHg 34%
23:00 +21°C° 0 mm 1 m/s 743 mmHg 35%

Amanhã, 6 Dezembro, Domingo

Tempo Temperatura Precipitação Vento Pressão Humidade
00:00 +20°C° 0 mm 1 m/s 743 mmHg 36%
01:00 +20°C° 0 mm 1 m/s 743 mmHg 37%
02:00 +19°C° 0 mm 1 m/s 743 mmHg 38%
03:00 +19°C° 0 mm 1 m/s 743 mmHg 39%
04:00 +19°C° 0 mm 1 m/s 743 mmHg 40%
05:00 +18°C° 0 mm 1 m/s 743 mmHg 41%
06:00 +19°C° 0 mm 1 m/s 744 mmHg 40%
07:00 +20°C° 0 mm 1 m/s 745 mmHg 39%
08:00 +21°C° 0 mm 1 m/s 746 mmHg 39%
09:00 +23°C° 0 mm 2 m/s 746 mmHg 34%
10:00 +26°C° 0 mm 2 m/s 746 mmHg 30%
11:00 +28°C° 0 mm 2 m/s 746 mmHg 25%
12:00 +29°C° 0 mm 2 m/s 745 mmHg 24%
13:00 +30°C° 0 mm 1 m/s 744 mmHg 23%
14:00 +31°C° 0 mm 1 m/s 744 mmHg 21%
15:00 +29°C° 0 mm 1 m/s 743 mmHg 25%
16:00 +27°C° 0 mm 1 m/s 743 mmHg 28%
17:00 +25°C° 0 mm 1 m/s 743 mmHg 31%
18:00 +24°C° 0 mm 1 m/s 743 mmHg 32%
19:00 +24°C° 0 mm 1 m/s 744 mmHg 33%
20:00 +23°C° 0 mm 1 m/s 744 mmHg 35%
21:00 +22°C° 0 mm 1 m/s 744 mmHg 35%
22:00 +21°C° 0 mm 2 m/s 744 mmHg 35%
23:00 +20°C° 0 mm 2 m/s 744 mmHg 36%

Depois de amanhã, 7 Dezembro, Segunda-feira

Tempo Temperatura Precipitação Vento Pressão Humidade
00:00 +20°C° 0 mm 2 m/s 744 mmHg 36%
01:00 +19°C° 0 mm 2 m/s 744 mmHg 37%
02:00 +18°C° 0 mm 2 m/s 744 mmHg 37%
03:00 +18°C° 0 mm 2 m/s 744 mmHg 38%
04:00 +18°C° 0 mm 2 m/s 744 mmHg 38%
05:00 +17°C° 0 mm 2 m/s 744 mmHg 39%
06:00 +18°C° 0 mm 2 m/s 745 mmHg 38%
07:00 +19°C° 0 mm 2 m/s 745 mmHg 37%
08:00 +20°C° 0 mm 2 m/s 746 mmHg 37%
09:00 +22°C° 0 mm 3 m/s 746 mmHg 32%
10:00 +26°C° 0 mm 3 m/s 746 mmHg 28%
11:00 +28°C° 0 mm 3 m/s 746 mmHg 23%
12:00 +29°C° 0 mm 4 m/s 745 mmHg 22%
13:00 +30°C° 0 mm 4 m/s 745 mmHg 20%
14:00 +30°C° 0 mm 4 m/s 744 mmHg 19%
15:00 +28°C° 0 mm 4 m/s 744 mmHg 21%
16:00 +26°C° 0 mm 3 m/s 744 mmHg 24%
17:00 +24°C° 0 mm 2 m/s 744 mmHg 27%
18:00 +24°C° 0 mm 2 m/s 744 mmHg 28%
19:00 +23°C° 0 mm 2 m/s 745 mmHg 29%
20:00 +21°C° 0 mm 2 m/s 745 mmHg 30%
21:00 +20°C° 0 mm 2 m/s 745 mmHg 30%
22:00 +20°C° 0 mm 2 m/s 745 mmHg 31%
23:00 +20°C° 0 mm 1 m/s 745 mmHg 32%

8 Dezembro, Terça-feira

Tempo Temperatura Precipitação Vento Pressão Humidade
00:00 +19°C° 0 mm 2 m/s 745 mmHg 33%
01:00 +19°C° 0 mm 2 m/s 745 mmHg 34%
02:00 +18°C° 0 mm 2 m/s 745 mmHg 35%
03:00 +18°C° 0 mm 2 m/s 745 mmHg 35%
04:00 +18°C° 0 mm 2 m/s 745 mmHg 36%
05:00 +17°C° 0 mm 2 m/s 745 mmHg 36%
06:00 +18°C° 0 mm 2 m/s 745 mmHg 36%
07:00 +19°C° 0 mm 2 m/s 746 mmHg 35%
08:00 +20°C° 0 mm 1 m/s 747 mmHg 34%
09:00 +23°C° 0 mm 2 m/s 746 mmHg 30%
10:00 +26°C° 0 mm 3 m/s 746 mmHg 25%
11:00 +28°C° 0 mm 3 m/s 746 mmHg 21%
12:00 +29°C° 0 mm 3 m/s 746 mmHg 20%
13:00 +30°C° 0 mm 4 m/s 745 mmHg 19%
14:00 +32°C° 0 mm 4 m/s 744 mmHg 18%
15:00 +29°C° 0 mm 3 m/s 744 mmHg 21%
16:00 +27°C° 0 mm 3 m/s 744 mmHg 24%
17:00 +25°C° 0 mm 2 m/s 744 mmHg 26%
18:00 +24°C° 0 mm 2 m/s 744 mmHg 27%
19:00 +23°C° 0 mm 2 m/s 744 mmHg 28%
20:00 +21°C° 0 mm 2 m/s 744 mmHg 29%
21:00 +21°C° 0 mm 2 m/s 744 mmHg 30%
22:00 +20°C° 0 mm 2 m/s 744 mmHg 31%
23:00 +20°C° 0 mm 2 m/s 744 mmHg 32%

9 Dezembro, Quarta-feira

Tempo Temperatura Precipitação Vento Pressão Humidade
00:00 +20°C° 0 mm 2 m/s 744 mmHg 33%
01:00 +19°C° 0 mm 2 m/s 744 mmHg 33%
02:00 +19°C° 0 mm 2 m/s 744 mmHg 34%
03:00 +19°C° 0 mm 1 m/s 743 mmHg 35%
04:00 +19°C° 0 mm 1 m/s 743 mmHg 36%
05:00 +18°C° 0 mm 1 m/s 743 mmHg 37%
06:00 +19°C° 0 mm 1 m/s 744 mmHg 37%
07:00 +19°C° 0 mm 2 m/s 744 mmHg 36%
08:00 +20°C° 0 mm 2 m/s 745 mmHg 35%
09:00 +23°C° 0 mm 2 m/s 745 mmHg 31%
10:00 +26°C° 0 mm 2 m/s 745 mmHg 26%
11:00 +29°C° 0 mm 3 m/s 745 mmHg 22%
12:00 +29°C° 0 mm 3 m/s 744 mmHg 21%
13:00 +30°C° 0 mm 3 m/s 744 mmHg 20%
14:00 +32°C° 0 mm 4 m/s 743 mmHg 19%
15:00 +29°C° 0 mm 3 m/s 743 mmHg 22%
16:00 +27°C° 0 mm 3 m/s 742 mmHg 25%
17:00 +25°C° 0 mm 2 m/s 742 mmHg 27%
18:00 +24°C° 0 mm 2 m/s 742 mmHg 28%
19:00 +23°C° 0 mm 1 m/s 743 mmHg 29%
20:00 +22°C° 0 mm 1 m/s 743 mmHg 30%
21:00 +22°C° 0 mm 1 m/s 743 mmHg 31%
22:00 +22°C° 0 mm 1 m/s 743 mmHg 32%
23:00 +20°C° 0 mm 2 m/s 743 mmHg 32%

10 Dezembro, Quinta-feira

Tempo Temperatura Precipitação Vento Pressão Humidade
00:00 +20°C° 0 mm 2 m/s 743 mmHg 33%
01:00 +19°C° 0 mm 2 m/s 743 mmHg 34%
02:00 +19°C° 0 mm 2 m/s 742 mmHg 35%
03:00 +19°C° 0 mm 2 m/s 742 mmHg 38%
04:00 +18°C° 0 mm 2 m/s 742 mmHg 40%
05:00 +18°C° 0 mm 2 m/s 743 mmHg 42%
06:00 +19°C° 0 mm 2 m/s 743 mmHg 41%
07:00 +19°C° 0 mm 2 m/s 744 mmHg 41%
08:00 +20°C° 0 mm 2 m/s 744 mmHg 41%
09:00 +24°C° 0 mm 2 m/s 744 mmHg 36%
10:00 +27°C° 0 mm 3 m/s 744 mmHg 30%
11:00 +29°C° 0 mm 3 m/s 744 mmHg 25%
12:00 +30°C° 0 mm 3 m/s 743 mmHg 24%
13:00 +31°C° 0 mm 3 m/s 743 mmHg 22%
14:00 +31°C° 0 mm 3 m/s 742 mmHg 21%
15:00 +29°C° 0 mm 3 m/s 742 mmHg 24%
16:00 +27°C° 0 mm 3 m/s 742 mmHg 27%
17:00 +25°C° 0 mm 2 m/s 742 mmHg 31%
18:00 +25°C° 0 mm 2 m/s 742 mmHg 32%
19:00 +24°C° 0 mm 2 m/s 742 mmHg 33%
20:00 +23°C° 0 mm 2 m/s 743 mmHg 34%
21:00 +21°C° 0 mm 2 m/s 743 mmHg 36%
22:00 +21°C° 0 mm 2 m/s 743 mmHg 37%
23:00 +20°C° 0 mm 2 m/s 743 mmHg 39%
Mostrar mais